Location: San Pelegr�n
(42.1868°N, 0.0079°E)
Time: 02:15:18
(UTC+00:00)

FALCON 9 R/B - Pass Details

Date: 24 January 2020
Orbit: 286 x 10158 km, 34.5° (Epoch: 19 February)

Event Time Altitude Azimuth Distance (km) Brightness Sun altitude
Rises 20:10:00 0° 248° (WSW) 7,732 7.9 -34.4°
Reaches altitude 10° 20:17:29 10° 243° (WSW) 5,040 6.7 -35.8°
Enters shadow 20:25:50 32° 209° (SSW) 1,863 4.0 -37.3°
